Time,TemperatureF,DewpointF,PressureIn,WindDirection,WindDirectionDegrees,WindSpeedMPH,WindSpeedGustMPH,Humidity,HourlyPrecipIn,Conditions,Clouds,dailyrainin,SoftwareType,DateUTC
2013-09-15 00:00:00,71.8,64.6,30.04,NE,55,0.0,0.0,78,0.00,,,0.00,Wunderground v.1.15,2013-09-15 04:00:00,
2013-09-15 00:05:00,71.7,64.5,30.04,NE,55,0.0,0.0,78,0.00,,,0.00,Wunderground v.1.15,2013-09-15 04:05:00,
2013-09-15 00:10:00,71.6,64.4,30.04,East,101,0.0,2.0,78,0.00,,,0.00,Wunderground v.1.15,2013-09-15 04:10:00,
2013-09-15 00:20:00,71.4,64.2,30.04,East,84,0.0,0.0,78,0.00,,,0.00,Wunderground v.1.15,2013-09-15 04:20:00,
2013-09-15 00:30:00,71.2,64.4,30.05,East,84,0.0,1.0,79,0.00,,,0.00,Wunderground v.1.15,2013-09-15 04:30:00,
2013-09-15 00:35:00,71.1,64.3,30.05,East,85,0.0,1.0,79,0.00,,,0.00,Wunderground v.1.15,2013-09-15 04:35:00,
2013-09-15 00:45:00,70.9,64.1,30.05,East,88,0.0,0.0,79,0.00,,,0.00,Wunderground v.1.15,2013-09-15 04:45:00,
2013-09-15 00:50:00,70.7,64.2,30.05,East,88,0.0,0.0,80,0.00,,,0.00,Wunderground v.1.15,2013-09-15 04:50:00,
2013-09-15 01:00:00,70.6,64.1,30.05,East,88,0.0,0.0,80,0.00,,,0.00,Wunderground v.1.15,2013-09-15 05:00:00,
2013-09-15 01:05:00,70.4,63.9,30.05,NNW,340,0.0,0.0,80,0.00,,,0.00,Wunderground v.1.15,2013-09-15 05:05:00,
2013-09-15 01:15:00,70.3,64.2,30.05,NNW,340,0.0,0.0,81,0.00,,,0.00,Wunderground v.1.15,2013-09-15 05:15:00,
2013-09-15 01:20:00,70.2,64.1,30.05,NNE,28,0.0,0.0,81,0.00,,,0.00,Wunderground v.1.15,2013-09-15 05:20:00,
2013-09-15 01:30:00,70.1,64.0,30.05,NE,55,0.0,0.0,81,0.00,,,0.00,Wunderground v.1.15,2013-09-15 05:30:00,
2013-09-15 01:40:00,69.9,64.2,30.05,NE,55,0.0,0.0,82,0.00,,,0.00,Wunderground v.1.15,2013-09-15 05:40:00,
2013-09-15 01:45:00,69.9,64.2,30.05,NE,55,0.0,0.0,82,0.00,,,0.00,Wunderground v.1.15,2013-09-15 05:45:00,
2013-09-15 01:55:00,69.8,64.4,30.05,NE,55,0.0,0.0,83,0.00,,,0.00,Wunderground v.1.15,2013-09-15 05:55:00,
2013-09-15 02:00:00,69.7,64.3,30.05,NE,55,0.0,0.0,83,0.00,,,0.00,Wunderground v.1.15,2013-09-15 06:00:00,
2013-09-15 02:10:00,69.6,64.5,30.05,NE,51,0.0,0.0,84,0.00,,,0.00,Wunderground v.1.15,2013-09-15 06:10:00,
2013-09-15 02:20:00,69.5,64.5,30.05,NE,51,0.0,0.0,84,0.00,,,0.00,Wunderground v.1.15,2013-09-15 06:20:00,
2013-09-15 02:25:00,69.4,64.4,30.05,NE,51,0.0,0.0,84,0.00,,,0.00,Wunderground v.1.15,2013-09-15 06:25:00,
2013-09-15 02:35:00,69.4,64.7,30.05,NE,53,0.0,1.0,85,0.00,,,0.00,Wunderground v.1.15,2013-09-15 06:35:00,
2013-09-15 02:45:00,69.2,64.5,30.05,NE,53,0.0,0.0,85,0.00,,,0.00,Wunderground v.1.15,2013-09-15 06:45:00,
2013-09-15 02:55:00,69.1,64.7,30.05,East,88,0.0,1.0,86,0.00,,,0.00,Wunderground v.1.15,2013-09-15 06:55:00,
2013-09-15 03:05:00,69.0,64.6,30.05,East,101,0.0,1.0,86,0.00,,,0.00,Wunderground v.1.15,2013-09-15 07:05:00,
2013-09-15 03:10:00,69.0,64.6,30.05,East,101,0.0,0.0,86,0.00,,,0.00,Wunderground v.1.15,2013-09-15 07:10:00,
2013-09-15 03:20:00,69.0,65.0,30.05,East,101,0.0,0.0,87,0.00,,,0.00,Wunderground v.1.15,2013-09-15 07:20:00,
2013-09-15 03:30:00,68.9,64.9,30.05,East,101,0.0,0.0,87,0.00,,,0.00,Wunderground v.1.15,2013-09-15 07:30:00,
2013-09-15 03:35:00,68.8,64.8,30.05,East,89,0.0,0.0,87,0.00,,,0.00,Wunderground v.1.15,2013-09-15 07:35:00,
2013-09-15 03:45:00,68.8,64.8,30.05,East,89,0.0,0.0,87,0.00,,,0.00,Wunderground v.1.15,2013-09-15 07:45:00,
2013-09-15 03:55:00,68.7,65.0,30.05,East,89,0.0,0.0,88,0.00,,,0.00,Wunderground v.1.15,2013-09-15 07:55:00,
2013-09-15 04:05:00,68.7,65.0,30.05,East,89,0.0,0.0,88,0.00,,,0.00,Wunderground v.1.15,2013-09-15 08:05:00,
2013-09-15 04:10:00,68.6,64.9,30.05,East,89,0.0,0.0,88,0.00,,,0.00,Wunderground v.1.15,2013-09-15 08:10:00,
2013-09-15 04:20:00,68.6,64.9,30.05,ESE,107,0.0,0.0,88,0.00,,,0.00,Wunderground v.1.15,2013-09-15 08:20:00,
2013-09-15 04:25:00,68.5,64.8,30.05,ESE,107,0.0,0.0,88,0.00,,,0.00,Wunderground v.1.15,2013-09-15 08:25:00,
2013-09-15 04:35:00,68.5,64.8,30.06,ENE,66,0.0,1.0,88,0.00,,,0.00,Wunderground v.1.15,2013-09-15 08:35:00,
2013-09-15 04:40:00,68.5,64.8,30.06,ENE,66,0.0,0.0,88,0.00,,,0.00,Wunderground v.1.15,2013-09-15 08:40:00,
2013-09-15 04:50:00,68.3,64.9,30.06,ENE,66,0.0,0.0,89,0.00,,,0.00,Wunderground v.1.15,2013-09-15 08:50:00,
2013-09-15 04:55:00,68.2,64.8,30.06,ENE,69,0.0,1.0,89,0.00,,,0.00,Wunderground v.1.15,2013-09-15 08:55:00,
2013-09-15 05:00:00,68.1,64.7,30.06,ENE,69,0.0,0.0,89,0.00,,,0.00,Wunderground v.1.15,2013-09-15 09:00:00,
2013-09-15 05:10:00,68.0,64.6,30.06,ENE,76,0.0,0.0,89,0.00,,,0.00,Wunderground v.1.15,2013-09-15 09:10:00,
2013-09-15 05:20:00,68.0,64.6,30.06,ENE,76,0.0,0.0,89,0.00,,,0.00,Wunderground v.1.15,2013-09-15 09:20:00,
2013-09-15 05:30:00,67.9,64.5,30.06,ENE,76,0.0,0.0,89,0.00,,,0.00,Wunderground v.1.15,2013-09-15 09:30:00,
2013-09-15 05:35:00,67.9,64.9,30.06,ENE,76,0.0,1.0,90,0.00,,,0.00,Wunderground v.1.15,2013-09-15 09:35:00,
2013-09-15 05:45:00,67.8,64.8,30.07,ENE,76,0.0,0.0,90,0.00,,,0.00,Wunderground v.1.15,2013-09-15 09:45:00,
2013-09-15 05:50:00,67.7,64.7,30.07,ENE,76,0.0,0.0,90,0.00,,,0.00,Wunderground v.1.15,2013-09-15 09:50:00,
2013-09-15 06:00:00,67.7,64.7,30.07,ENE,76,0.0,0.0,90,0.00,,,0.00,Wunderground v.1.15,2013-09-15 10:00:00,
2013-09-15 06:05:00,67.6,64.6,30.07,ENE,76,0.0,0.0,90,0.00,,,0.00,Wunderground v.1.15,2013-09-15 10:05:00,
2013-09-15 06:15:00,67.6,64.9,30.08,ENE,76,0.0,1.0,91,0.00,,,0.00,Wunderground v.1.15,2013-09-15 10:15:00,
2013-09-15 06:20:00,67.5,64.5,30.08,ENE,76,0.0,0.0,90,0.00,,,0.00,Wunderground v.1.15,2013-09-15 10:20:00,
2013-09-15 06:30:00,67.5,64.8,30.08,ENE,76,0.0,0.0,91,0.00,,,0.00,Wunderground v.1.15,2013-09-15 10:30:00,
2013-09-15 06:40:00,67.4,64.7,30.08,ENE,76,0.0,0.0,91,0.00,,,0.00,Wunderground v.1.15,2013-09-15 10:40:00,
2013-09-15 06:45:00,67.4,64.7,30.08,ENE,76,0.0,0.0,91,0.00,,,0.00,Wunderground v.1.15,2013-09-15 10:45:00,
2013-09-15 06:55:00,67.3,64.6,30.08,ENE,76,0.0,0.0,91,0.00,,,0.00,Wunderground v.1.15,2013-09-15 10:55:00,
2013-09-15 07:00:00,67.2,64.5,30.08,ENE,76,0.0,0.0,91,0.00,,,0.00,Wunderground v.1.15,2013-09-15 11:00:00,
2013-09-15 07:10:00,67.2,64.5,30.09,ENE,76,0.0,0.0,91,0.00,,,0.00,Wunderground v.1.15,2013-09-15 11:10:00,
2013-09-15 07:15:00,67.2,64.8,30.09,ENE,76,0.0,1.0,92,0.00,,,0.00,Wunderground v.1.15,2013-09-15 11:15:00,
2013-09-15 07:25:00,67.2,64.8,30.09,ENE,76,0.0,0.0,92,0.00,,,0.00,Wunderground v.1.15,2013-09-15 11:25:00,
2013-09-15 07:35:00,67.3,64.9,30.10,ENE,76,0.0,0.0,92,0.00,,,0.00,Wunderground v.1.15,2013-09-15 11:35:00,
2013-09-15 07:40:00,67.5,65.1,30.10,ENE,76,0.0,0.0,92,0.00,,,0.00,Wunderground v.1.15,2013-09-15 11:40:00,
2013-09-15 07:50:00,68.0,65.3,30.11,ENE,76,0.0,0.0,91,0.00,,,0.00,Wunderground v.1.15,2013-09-15 11:50:00,
2013-09-15 08:00:00,68.5,65.8,30.11,ENE,76,0.0,0.0,91,0.00,,,0.00,Wunderground v.1.15,2013-09-15 12:00:00,
2013-09-15 08:10:00,69.1,66.0,30.11,SE,146,0.0,0.0,90,0.00,,,0.00,Wunderground v.1.15,2013-09-15 12:10:00,
2013-09-15 08:20:00,70.0,66.6,30.11,ESE,111,0.0,1.0,89,0.00,,,0.00,Wunderground v.1.15,2013-09-15 12:20:00,
2013-09-15 08:30:00,71.1,66.7,30.11,NNE,13,0.0,0.0,86,0.00,,,0.00,Wunderground v.1.15,2013-09-15 12:30:00,
2013-09-15 08:35:00,71.5,66.8,30.11,ESE,118,0.0,1.0,85,0.00,,,0.00,Wunderground v.1.15,2013-09-15 12:35:00,
2013-09-15 08:45:00,72.4,67.3,30.11,ENE,76,0.0,0.0,84,0.00,,,0.00,Wunderground v.1.15,2013-09-15 12:45:00,
2013-09-15 08:50:00,72.9,67.4,30.12,ENE,66,0.0,1.0,83,0.00,,,0.00,Wunderground v.1.15,2013-09-15 12:50:00,
2013-09-15 09:00:00,73.3,67.8,30.12,NE,52,1.0,1.0,83,0.00,,,0.00,Wunderground v.1.15,2013-09-15 13:00:00,
2013-09-15 09:05:00,73.5,68.0,30.12,ENE,61,0.0,3.0,83,0.00,,,0.00,Wunderground v.1.15,2013-09-15 13:05:00,
2013-09-15 09:15:00,74.0,68.2,30.12,ENE,70,1.0,4.0,82,0.00,,,0.00,Wunderground v.1.15,2013-09-15 13:15:00,
2013-09-15 09:20:00,74.2,68.3,30.12,North,355,2.0,2.0,82,0.00,,,0.00,Wunderground v.1.15,2013-09-15 13:20:00,
2013-09-15 09:30:00,74.7,68.8,30.12,ENE,70,0.0,3.0,82,0.00,,,0.00,Wunderground v.1.15,2013-09-15 13:30:00,
2013-09-15 09:40:00,75.4,69.2,30.13,ESE,105,1.0,2.0,81,0.00,,,0.00,Wunderground v.1.15,2013-09-15 13:40:00,
2013-09-15 09:50:00,75.9,69.3,30.13,East,86,2.0,2.0,80,0.00,,,0.00,Wunderground v.1.15,2013-09-15 13:50:00,
2013-09-15 10:00:00,76.5,69.9,30.13,ENE,74,2.0,4.0,80,0.00,,,0.00,Wunderground v.1.15,2013-09-15 14:00:00,
2013-09-15 10:05:00,76.9,70.3,30.14,ENE,61,3.0,4.0,80,0.00,,,0.00,Wunderground v.1.15,2013-09-15 14:05:00,
2013-09-15 10:15:00,77.6,70.6,30.14,ENE,72,3.0,3.0,79,0.00,,,0.00,Wunderground v.1.15,2013-09-15 14:15:00,
2013-09-15 10:25:00,78.4,71.0,30.14,ENE,69,2.0,4.0,78,0.00,,,0.00,Wunderground v.1.15,2013-09-15 14:25:00,
2013-09-15 10:35:00,78.7,71.3,30.14,ENE,74,3.0,8.0,78,0.00,,,0.00,Wunderground v.1.15,2013-09-15 14:35:00,
2013-09-15 10:45:00,79.0,71.6,30.14,NNE,16,3.0,3.0,78,0.00,,,0.00,Wunderground v.1.15,2013-09-15 14:45:00,
2013-09-15 10:55:00,79.6,71.8,30.14,East,85,3.0,3.0,77,0.00,,,0.00,Wunderground v.1.15,2013-09-15 14:55:00,
2013-09-15 11:05:00,80.3,72.0,30.14,ENE,65,3.0,5.0,76,0.00,,,0.00,Wunderground v.1.15,2013-09-15 15:05:00,
2013-09-15 11:10:00,80.4,72.5,30.14,ESE,123,3.0,3.0,77,0.00,,,0.00,Wunderground v.1.15,2013-09-15 15:10:00,
2013-09-15 11:20:00,80.7,72.4,30.14,ENE,63,3.0,3.0,76,0.00,,,0.00,Wunderground v.1.15,2013-09-15 15:20:00,
2013-09-15 11:25:00,80.7,72.4,30.14,ENE,74,3.0,3.0,76,0.00,,,0.00,Wunderground v.1.15,2013-09-15 15:25:00,
2013-09-15 11:35:00,80.8,72.5,30.14,ENE,75,4.0,4.0,76,0.00,,,0.00,Wunderground v.1.15,2013-09-15 15:35:00,
2013-09-15 11:40:00,80.5,72.6,30.14,ENE,65,4.0,5.0,77,0.00,,,0.00,Wunderground v.1.15,2013-09-15 15:40:00,
2013-09-15 11:50:00,80.3,72.4,30.14,East,91,3.0,7.0,77,0.00,,,0.00,Wunderground v.1.15,2013-09-15 15:50:00,
2013-09-15 12:00:00,80.6,72.7,30.13,NE,53,3.0,3.0,77,0.00,,,0.00,Wunderground v.1.15,2013-09-15 16:00:00,
2013-09-15 12:10:00,80.8,72.9,30.13,NE,43,3.0,6.0,77,0.00,,,0.00,Wunderground v.1.15,2013-09-15 16:10:00,
2013-09-15 12:20:00,81.4,72.7,30.13,East,82,4.0,9.0,75,0.00,,,0.00,Wunderground v.1.15,2013-09-15 16:20:00,
2013-09-15 12:30:00,81.3,72.2,30.13,ENE,64,3.0,3.0,74,0.00,,,0.00,Wunderground v.1.15,2013-09-15 16:30:00,
2013-09-15 12:40:00,80.9,72.2,30.13,NE,44,3.0,3.0,75,0.00,,,0.00,Wunderground v.1.15,2013-09-15 16:40:00,
2013-09-15 12:50:00,80.7,72.4,30.13,ENE,66,4.0,4.0,76,0.00,,,0.00,Wunderground v.1.15,2013-09-15 16:50:00,
2013-09-15 12:55:00,80.7,72.0,30.13,ENE,72,4.0,4.0,75,0.00,,,0.00,Wunderground v.1.15,2013-09-15 16:55:00,
2013-09-15 13:05:00,80.9,72.2,30.13,ENE,67,4.0,5.0,75,0.00,,,0.00,Wunderground v.1.15,2013-09-15 17:05:00,
2013-09-15 13:10:00,81.1,72.4,30.12,ENE,74,3.0,3.0,75,0.00,,,0.00,Wunderground v.1.15,2013-09-15 17:10:00,
2013-09-15 13:20:00,81.9,72.8,30.12,ENE,71,3.0,3.0,74,0.00,,,0.00,Wunderground v.1.15,2013-09-15 17:20:00,
2013-09-15 13:25:00,82.2,73.1,30.12,East,82,4.0,7.0,74,0.00,,,0.00,Wunderground v.1.15,2013-09-15 17:25:00,
2013-09-15 13:35:00,82.4,72.5,30.12,East,80,3.0,3.0,72,0.00,,,0.00,Wunderground v.1.15,2013-09-15 17:35:00,
2013-09-15 13:40:00,82.1,72.6,30.12,NE,46,3.0,3.0,73,0.00,,,0.00,Wunderground v.1.15,2013-09-15 17:40:00,
2013-09-15 13:50:00,81.3,72.6,30.11,ENE,60,2.0,7.0,75,0.00,,,0.00,Wunderground v.1.15,2013-09-15 17:50:00,
2013-09-15 13:55:00,80.8,72.1,30.11,ENE,66,2.0,7.0,75,0.00,,,0.00,Wunderground v.1.15,2013-09-15 17:55:00,
2013-09-15 14:05:00,80.5,72.2,30.11,ENE,71,2.0,5.0,76,0.00,,,0.00,Wunderground v.1.15,2013-09-15 18:05:00,
2013-09-15 14:15:00,80.4,72.1,30.11,NE,56,3.0,4.0,76,0.00,,,0.00,Wunderground v.1.15,2013-09-15 18:15:00,
2013-09-15 14:25:00,80.0,72.5,30.10,ENE,60,4.0,5.0,78,0.00,,,0.00,Wunderground v.1.15,2013-09-15 18:25:00,
2013-09-15 14:35:00,80.8,72.9,30.10,ENE,63,3.0,8.0,77,0.00,,,0.00,Wunderground v.1.15,2013-09-15 18:35:00,
2013-09-15 14:40:00,80.9,72.6,30.10,ENE,72,3.0,3.0,76,0.00,,,0.00,Wunderground v.1.15,2013-09-15 18:40:00,
2013-09-15 14:50:00,80.8,72.5,30.09,ENE,76,3.0,7.0,76,0.00,,,0.00,Wunderground v.1.15,2013-09-15 18:50:00,
2013-09-15 15:00:00,81.3,73.4,30.09,ENE,69,5.0,8.0,77,0.00,,,0.00,Wunderground v.1.15,2013-09-15 19:00:00,
2013-09-15 15:05:00,81.5,73.2,30.09,ENE,57,4.0,8.0,76,0.00,,,0.00,Wunderground v.1.15,2013-09-15 19:05:00,
2013-09-15 15:15:00,81.4,72.7,30.09,ENE,73,4.0,5.0,75,0.00,,,0.00,Wunderground v.1.15,2013-09-15 19:15:00,
2013-09-15 15:25:00,81.0,72.7,30.09,ENE,69,3.0,5.0,76,0.00,,,0.00,Wunderground v.1.15,2013-09-15 19:25:00,
2013-09-15 15:35:00,80.3,72.4,30.09,SE,128,4.0,7.0,77,0.00,,,0.00,Wunderground v.1.15,2013-09-15 19:35:00,
2013-09-15 15:45:00,80.0,72.9,30.09,SE,130,4.0,5.0,79,0.00,,,0.00,Wunderground v.1.15,2013-09-15 19:45:00,
2013-09-15 15:55:00,80.7,72.8,30.08,ENE,72,4.0,4.0,77,0.00,,,0.00,Wunderground v.1.15,2013-09-15 19:55:00,
2013-09-15 16:05:00,80.6,72.7,30.08,ENE,69,3.0,5.0,77,0.00,,,0.00,Wunderground v.1.15,2013-09-15 20:05:00,
2013-09-15 16:10:00,80.5,73.0,30.08,ENE,57,3.0,3.0,78,0.00,,,0.00,Wunderground v.1.15,2013-09-15 20:10:00,
2013-09-15 16:20:00,80.4,72.5,30.08,ENE,66,3.0,4.0,77,0.00,,,0.00,Wunderground v.1.15,2013-09-15 20:20:00,
2013-09-15 16:30:00,80.2,72.3,30.08,ENE,74,3.0,5.0,77,0.00,,,0.00,Wunderground v.1.15,2013-09-15 20:30:00,
2013-09-15 16:35:00,80.0,72.5,30.08,NNE,17,4.0,5.0,78,0.00,,,0.00,Wunderground v.1.15,2013-09-15 20:35:00,
2013-09-15 16:45:00,79.7,72.6,30.08,SE,126,4.0,4.0,79,0.00,,,0.00,Wunderground v.1.15,2013-09-15 20:45:00,
2013-09-15 16:50:00,79.7,72.6,30.07,NE,48,4.0,4.0,79,0.00,,,0.00,Wunderground v.1.15,2013-09-15 20:50:00,
2013-09-15 17:00:00,80.3,72.8,30.07,ENE,76,4.0,4.0,78,0.00,,,0.00,Wunderground v.1.15,2013-09-15 21:00:00,
2013-09-15 17:05:00,80.4,72.9,30.07,ENE,63,3.0,5.0,78,0.00,,,0.00,Wunderground v.1.15,2013-09-15 21:05:00,
2013-09-15 17:15:00,80.5,72.6,30.07,East,80,3.0,3.0,77,0.00,,,0.00,Wunderground v.1.15,2013-09-15 21:15:00,
2013-09-15 17:25:00,80.1,72.6,30.07,ENE,74,4.0,7.0,78,0.00,,,0.00,Wunderground v.1.15,2013-09-15 21:25:00,
2013-09-15 17:30:00,79.7,72.2,30.07,East,81,4.0,4.0,78,0.00,,,0.00,Wunderground v.1.15,2013-09-15 21:30:00,
2013-09-15 17:40:00,79.5,72.4,30.07,SE,136,2.0,2.0,79,0.00,,,0.00,Wunderground v.1.15,2013-09-15 21:40:00,
2013-09-15 17:50:00,79.4,72.7,30.07,NE,51,2.0,2.0,80,0.00,,,0.00,Wunderground v.1.15,2013-09-15 21:50:00,
2013-09-15 17:55:00,79.4,72.7,30.07,NE,47,3.0,5.0,80,0.00,,,0.00,Wunderground v.1.15,2013-09-15 21:55:00,
2013-09-15 18:05:00,78.9,72.2,30.07,ENE,69,4.0,4.0,80,0.00,,,0.00,Wunderground v.1.15,2013-09-15 22:05:00,
2013-09-15 18:10:00,78.6,72.3,30.07,ENE,69,3.0,3.0,81,0.00,,,0.00,Wunderground v.1.15,2013-09-15 22:10:00,
2013-09-15 18:20:00,78.4,72.4,30.07,ENE,59,3.0,3.0,82,0.00,,,0.00,Wunderground v.1.15,2013-09-15 22:20:00,
2013-09-15 18:25:00,78.4,72.4,30.07,ENE,67,3.0,4.0,82,0.00,,,0.00,Wunderground v.1.15,2013-09-15 22:25:00,
2013-09-15 18:35:00,78.2,72.3,30.07,ENE,76,2.0,3.0,82,0.00,,,0.00,Wunderground v.1.15,2013-09-15 22:35:00,
2013-09-15 18:40:00,78.0,72.1,30.07,East,91,2.0,2.0,82,0.00,,,0.00,Wunderground v.1.15,2013-09-15 22:40:00,
2013-09-15 18:50:00,77.9,72.0,30.08,ENE,69,3.0,3.0,82,0.00,,,0.00,Wunderground v.1.15,2013-09-15 22:50:00,
2013-09-15 19:00:00,77.8,72.2,30.07,East,101,2.0,2.0,83,0.00,,,0.00,Wunderground v.1.15,2013-09-15 23:00:00,
2013-09-15 19:10:00,77.6,72.0,30.07,ENE,77,2.0,2.0,83,0.00,,,0.00,Wunderground v.1.15,2013-09-15 23:10:00,
2013-09-15 19:20:00,77.4,72.2,30.07,East,83,3.0,3.0,84,0.00,,,0.00,Wunderground v.1.15,2013-09-15 23:20:00,
2013-09-15 19:30:00,77.3,72.1,30.07,East,87,2.0,5.0,84,0.00,,,0.00,Wunderground v.1.15,2013-09-15 23:30:00,
2013-09-15 19:40:00,77.2,72.0,30.08,ENE,76,2.0,3.0,84,0.00,,,0.00,Wunderground v.1.15,2013-09-15 23:40:00,
2013-09-15 19:45:00,77.2,72.3,30.08,ENE,69,2.0,3.0,85,0.00,,,0.00,Wunderground v.1.15,2013-09-15 23:45:00,
2013-09-15 19:55:00,77.2,72.3,30.08,NE,55,2.0,2.0,85,0.00,,,0.00,Wunderground v.1.15,2013-09-15 23:55:00,
2013-09-15 20:00:00,77.2,72.3,30.08,ENE,74,1.0,2.0,85,0.00,,,0.00,Wunderground v.1.15,2013-09-16 00:00:00,
2013-09-15 20:10:00,77.2,72.3,30.08,ENE,72,3.0,3.0,85,0.00,,,0.00,Wunderground v.1.15,2013-09-16 00:10:00,
2013-09-15 20:15:00,77.2,72.3,30.08,ENE,65,2.0,3.0,85,0.00,,,0.00,Wunderground v.1.15,2013-09-16 00:15:00,
2013-09-15 20:25:00,77.2,72.3,30.08,ENE,62,3.0,3.0,85,0.00,,,0.00,Wunderground v.1.15,2013-09-16 00:25:00,
2013-09-15 20:35:00,77.2,72.3,30.08,ENE,61,2.0,4.0,85,0.00,,,0.00,Wunderground v.1.15,2013-09-16 00:35:00,
2013-09-15 20:45:00,77.2,72.3,30.08,ENE,67,2.0,2.0,85,0.00,,,0.00,Wunderground v.1.15,2013-09-16 00:45:00,
2013-09-15 20:55:00,77.1,72.2,30.08,ENE,74,2.0,4.0,85,0.00,,,0.00,Wunderground v.1.15,2013-09-16 00:55:00,
2013-09-15 21:00:00,77.2,72.3,30.08,ENE,62,3.0,3.0,85,0.00,,,0.00,Wunderground v.1.15,2013-09-16 01:00:00,
2013-09-15 21:10:00,77.2,72.3,30.09,East,82,2.0,2.0,85,0.00,,,0.00,Wunderground v.1.15,2013-09-16 01:10:00,
2013-09-15 21:20:00,77.3,72.4,30.09,NE,55,2.0,3.0,85,0.00,,,0.00,Wunderground v.1.15,2013-09-16 01:20:00,
2013-09-15 21:25:00,77.3,72.8,30.09,ENE,57,2.0,3.0,86,0.00,,,0.00,Wunderground v.1.15,2013-09-16 01:25:00,
2013-09-15 21:35:00,77.3,72.8,30.09,ENE,65,2.0,2.0,86,0.00,,,0.00,Wunderground v.1.15,2013-09-16 01:35:00,
2013-09-15 21:40:00,77.4,72.9,30.09,NE,48,2.0,2.0,86,0.00,,,0.00,Wunderground v.1.15,2013-09-16 01:40:00,
2013-09-15 21:50:00,77.4,72.9,30.09,ENE,70,2.0,2.0,86,0.00,,,0.00,Wunderground v.1.15,2013-09-16 01:50:00,
2013-09-15 21:55:00,77.4,72.9,30.09,ENE,71,1.0,2.0,86,0.00,,,0.00,Wunderground v.1.15,2013-09-16 01:55:00,
2013-09-15 22:05:00,77.3,72.8,30.10,ENE,71,1.0,1.0,86,0.00,,,0.00,Wunderground v.1.15,2013-09-16 02:05:00,
2013-09-15 22:10:00,77.2,72.7,30.10,ENE,63,1.0,1.0,86,0.00,,,0.00,Wunderground v.1.15,2013-09-16 02:10:00,
2013-09-15 22:20:00,77.1,72.6,30.10,ENE,64,1.0,1.0,86,0.00,,,0.00,Wunderground v.1.15,2013-09-16 02:20:00,
2013-09-15 22:25:00,77.0,72.5,30.10,ENE,64,1.0,2.0,86,0.00,,,0.00,Wunderground v.1.15,2013-09-16 02:25:00,
2013-09-15 22:35:00,76.9,71.7,30.10,ENE,68,1.0,1.0,84,0.00,,,0.00,Wunderground v.1.15,2013-09-16 02:35:00,
2013-09-15 22:45:00,76.9,71.7,30.10,ENE,72,1.0,2.0,84,0.00,,,0.00,Wunderground v.1.15,2013-09-16 02:45:00,
2013-09-15 22:55:00,77.0,71.8,30.10,ENE,69,1.0,1.0,84,0.00,,,0.00,Wunderground v.1.15,2013-09-16 02:55:00,
2013-09-15 23:05:00,77.1,72.2,30.09,ENE,69,1.0,1.0,85,0.00,,,0.00,Wunderground v.1.15,2013-09-16 03:05:00,
2013-09-15 23:15:00,77.2,72.3,30.09,ENE,73,1.0,1.0,85,0.00,,,0.00,Wunderground v.1.15,2013-09-16 03:15:00,
2013-09-15 23:25:00,77.3,72.4,30.09,NE,53,1.0,1.0,85,0.00,,,0.00,Wunderground v.1.15,2013-09-16 03:25:00,
2013-09-15 23:35:00,77.3,72.4,30.09,NE,53,1.0,1.0,85,0.00,,,0.00,Wunderground v.1.15,2013-09-16 03:35:00,
2013-09-15 23:45:00,77.4,72.5,30.09,East,81,1.0,1.0,85,0.00,,,0.00,Wunderground v.1.15,2013-09-16 03:45:00,
2013-09-15 23:55:00,77.5,73.0,30.09,East,81,0.0,0.0,86,0.00,,,0.00,Wunderground v.1.15,2013-09-16 03:55:00,